Weather History for Amsterdam, Netherlands

Change the Weather History Date:

Sunday, August 11, 2013

  Actual Average Record
Temperature  
Mean Temperature 62 °F -  
Max Temperature 71 °F 67 °F 87 °F (1997)
Min Temperature 53 °F 54 °F 51 °F (1999)
Degree Days  
Heating Degree Days 3    
Growing Degree Days 12 (Base 50)    
Moisture  
Dew Point 55 °F    
Average Humidity 73    
Maximum Humidity 94    
Minimum Humidity 51    
Precipitation  
Precipitation 0.01 in - - ()
Sea Level Pressure  
Sea Level Pressure 30.03 in    
Wind  
Wind Speed 9 mph ()    
Max Wind Speed 21 mph    
Max Gust Speed -    
Visibility 6.8 miles    
Events Rain    
Averages and records for this station are not official NWS values.
T = Trace of Precipitation, MM = Missing Value Source: Averaged Metar Reports

Daily Weather History Graph

Daily Weather History Graph

Search for Another Location

Airport:

Trip Planner

Search our weather history database for the weather conditions in past years. The results will help you decide how hot, cold, wet, or windy it might be!

Date:

Astronomy

Aug. 11, 2013 Rise Set
Actual Time 6:17 AM CEST 9:13 PM CEST
Civil Twilight 5:38 AM CEST 9:52 PM CEST
Nautical Twilight 4:46 AM CEST 10:43 PM CEST
Astronomical Twilight 3:40 AM CEST 11:47 PM CEST
Moon 11:33 AM CEST (8/11) 10:32 PM CEST (8/11)
Length of Visible Light 16h 14m
Length of Day
14h 55m
Waxing Crescent, 19% of the Moon is Illuminated
Aug 11
Waxing Crescent
Aug 14
First Quarter
Aug 21
Full
Aug 28
Last Quarter
Sep 5
New

Hourly Weather History & Observations

Time (CEST) Temp. Dew Point Humidity Pressure Visibility Wind Dir Wind Speed Gust Speed Precip Events Conditions
12:25 AM 55.4 °F 48.2 °F 77% 30.12 in - SW 3.5 mph - N/A   Clear
12:55 AM 55.4 °F 50.0 °F 82% 30.12 in 6.2 mi SW 5.8 mph - N/A   Partly Cloudy
1:25 AM 57.2 °F 51.8 °F 82% 30.12 in 6.2 mi SW 5.8 mph - N/A   Partly Cloudy
1:55 AM 57.2 °F 51.8 °F 82% 30.12 in 6.2 mi South 3.5 mph - N/A   Partly Cloudy
2:00 AM 58 °F 52 °F 75% 30.13 in 25 mi South 4.5 mph - -   Partly Cloudy
2:25 AM 57.2 °F 53.6 °F 88% 30.09 in - South 4.6 mph - N/A   Clear
2:55 AM 59.0 °F 53.6 °F 82% 30.09 in - SSE 4.6 mph - N/A   Clear
3:25 AM 59.0 °F 51.8 °F 77% 30.09 in - SSE 5.8 mph - N/A   Clear
3:55 AM 57.2 °F 53.6 °F 88% 30.06 in - SSE 4.6 mph - N/A   Clear
4:25 AM 59.0 °F 53.6 °F 82% 30.06 in 6.2 mi SSE 5.8 mph - N/A   Partly Cloudy
4:55 AM 57.2 °F 51.8 °F 82% 30.06 in 6.2 mi SSE 4.6 mph - N/A   Partly Cloudy
5:00 AM 57 °F 53 °F 81% 30.06 in 19 mi SSE 6.7 mph - -   Mostly Cloudy
5:25 AM 57.2 °F 53.6 °F 88% 30.04 in 6.2 mi SSE 6.9 mph - N/A   Partly Cloudy
5:55 AM 57.2 °F 53.6 °F 88% 30.04 in 6.2 mi South 5.8 mph - N/A   Partly Cloudy
6:25 AM 55.4 °F 53.6 °F 94% 30.04 in 6.2 mi South 8.1 mph - N/A   Partly Cloudy
6:55 AM 57.2 °F 53.6 °F 88% 30.04 in 6.2 mi SSW 9.2 mph - N/A   Partly Cloudy
7:25 AM 59.0 °F 55.4 °F 88% 30.04 in 6.2 mi SW 9.2 mph - N/A   Partly Cloudy
7:55 AM 62.6 °F 55.4 °F 77% 30.04 in 6.2 mi West 9.2 mph - N/A   Partly Cloudy
8:00 AM 62 °F 56 °F 74% 30.06 in 16 mi West 8.9 mph - -   Partly Cloudy
8:25 AM 62.6 °F 55.4 °F 77% 30.04 in 6.2 mi West 6.9 mph - N/A   Partly Cloudy
8:55 AM 64.4 °F 51.8 °F 64% 30.04 in - WNW 6.9 mph - N/A   Clear
9:25 AM 64.4 °F 50.0 °F 59% 30.06 in 6.2 mi WSW 8.1 mph - N/A   Partly Cloudy
9:55 AM 64.4 °F 50.0 °F 59% 30.06 in 6.2 mi WSW 8.1 mph - N/A   Partly Cloudy
10:25 AM 64.4 °F 50.0 °F 59% 30.04 in 6.2 mi SW 10.4 mph - N/A   Partly Cloudy
10:55 AM 66.2 °F 50.0 °F 56% 30.04 in 6.2 mi SW 11.5 mph - N/A   Partly Cloudy
11:00 AM 66 °F 52 °F 51% 30.06 in 22 mi SW 13.4 mph - - Rain Drizzle
11:25 AM 68.0 °F 51.8 °F 56% 30.04 in 6.2 mi SW 10.4 mph - N/A   Partly Cloudy
11:55 AM 68.0 °F 51.8 °F 56% 30.04 in 6.2 mi SW 11.5 mph - N/A   Partly Cloudy
12:25 PM 69.8 °F 51.8 °F 53% 30.04 in 6.2 mi SW 12.7 mph - N/A   Scattered Clouds
12:55 PM 68.0 °F 55.4 °F 64% 30.04 in 6.2 mi SW 16.1 mph - N/A   Scattered Clouds
1:25 PM 69.8 °F 53.6 °F 56% 30.04 in 6.2 mi SW 17.3 mph - N/A   Scattered Clouds
1:55 PM 68.0 °F 55.4 °F 64% 30.01 in 6.2 mi WSW 13.8 mph - N/A   Scattered Clouds
2:00 PM 67 °F 54 °F 55% 30.03 in 25 mi SW 15.7 mph - -   Partly Cloudy
2:25 PM 68.0 °F 60.8 °F 78% 30.01 in 6.2 mi SW 19.6 mph - N/A   Partly Cloudy
2:55 PM 68.0 °F 57.2 °F 68% 30.01 in 6.2 mi WSW 20.7 mph - N/A   Scattered Clouds
3:25 PM 68.0 °F 55.4 °F 64% 30.01 in 6.2 mi WSW 20.7 mph - N/A   Scattered Clouds
3:55 PM 69.8 °F 57.2 °F 64% 30.01 in 6.2 mi West 20.7 mph - N/A   Partly Cloudy
4:25 PM 69.8 °F 57.2 °F 64% 30.01 in 6.2 mi West 20.7 mph - N/A   Partly Cloudy
4:55 PM 69.8 °F 57.2 °F 64% 30.01 in 6.2 mi West 19.6 mph - N/A   Partly Cloudy
5:00 PM 69 °F 57 °F 57% 30.01 in 25 mi West 20.1 mph - -   Partly Cloudy
5:25 PM 68.0 °F 57.2 °F 68% 30.01 in 6.2 mi West 18.4 mph - N/A   Partly Cloudy
5:55 PM 69.8 °F 55.4 °F 60% 29.98 in 6.2 mi West 18.4 mph - N/A   Partly Cloudy
6:25 PM 68.0 °F 57.2 °F 68% 29.98 in 6.2 mi West 18.4 mph - N/A   Partly Cloudy
6:55 PM 68.0 °F 55.4 °F 64% 29.98 in 6.2 mi WSW 20.7 mph - N/A   Partly Cloudy
7:25 PM 68.0 °F 57.2 °F 68% 29.98 in 6.2 mi WSW 20.7 mph - N/A   Partly Cloudy
7:55 PM 66.2 °F 57.2 °F 73% 29.98 in 6.2 mi WSW 17.3 mph - N/A   Partly Cloudy
8:00 PM 67 °F 58 °F 64% 29.99 in 25 mi WSW 15.7 mph - -   Partly Cloudy
8:25 PM 66.2 °F 57.2 °F 73% 29.98 in 6.2 mi West 16.1 mph - N/A   Partly Cloudy
8:55 PM 64.4 °F 59.0 °F 83% 29.98 in 6.2 mi West 15.0 mph - N/A   Scattered Clouds
9:25 PM 64.4 °F 59.0 °F 83% 29.98 in 6.2 mi WNW 12.7 mph - N/A   Partly Cloudy
9:55 PM 62.6 °F 59.0 °F 88% 29.98 in 6.2 mi West 9.2 mph - N/A   Partly Cloudy
10:25 PM 60.8 °F 59.0 °F 94% 30.01 in - West 6.9 mph - N/A   Clear
10:55 PM 62.6 °F 59.0 °F 88% 29.98 in 6.2 mi WSW 6.9 mph - N/A   Partly Cloudy
11:00 PM 63 °F 60 °F 85% 30.00 in 9 mi WSW 8.9 mph - -   Mostly Cloudy
11:25 PM 62.6 °F 59.0 °F 88% 29.98 in 6.2 mi WSW 6.9 mph - N/A   Partly Cloudy
11:55 PM 62.6 °F 59.0 °F 88% 29.98 in - WSW 6.9 mph - N/A   Clear